[Iaude] MPEC H45: 2024 HV [a=1.71,e=0.62,i=5.4,H=24.5]
    mpec at cfa.harvard.edu 
    mpec at cfa.harvard.edu
       
    Sat Apr 20 03:07:42 EDT 2024
    
    
  
M.P.E.C. 2024-H45                                Issued 2024 April 20, 07:06 UT
     The Minor Planet Electronic Circulars contain information on unusual
         minor planets, routine data on comets and natural satellites,
         and occasional editorial announcements.  They are published
    on behalf of Division F of the International Astronomical Union by the
          Minor Planet Center, Smithsonian Astrophysical Observatory,
                          Cambridge, MA 02138, U.S.A.
			  
             Prepared using the Tamkin Foundation Computer Network
                              MPC at CFA.HARVARD.EDU
            URL https://www.minorplanetcenter.net/    ISSN 1523-6714
                                    2024 HV                                     
Observations:
     K24H00V*1C2024 04 18.36001016 11 12.865+19 04 11.89         20.55GVEH045G96
     K24H00V 1C2024 04 18.36514216 11 07.480+19 03 35.86         20.11GVEH045G96
     K24H00V 1C2024 04 18.37027416 11 02.148+19 03 00.58         20.43GVEH045G96
     K24H00V 1C2024 04 18.37541516 10 56.708+19 02 25.40         20.70GVEH045G96
     K24H00V  C2024 04 18.40097816 10 29.754+18 59 27.07         20.5 GVEH045H01
     K24H00V  C2024 04 18.40480916 10 25.789+18 59 00.72         20.3 GVEH045H01
     K24H00V  C2024 04 18.41487016 10 15.371+18 57 51.57         20.6 GVEH045H01
     K24H00V  C2024 04 18.42161816 10 08.382+18 57 04.91         20.2 GVEH045H01
     K24H00V mC2024 04 18.43913516 09 50.720+18 55 07.28         20.48GVEH045I52
     K24H00V mC2024 04 18.43959416 09 50.238+18 55 04.19         20.78GVEH045I52
     K24H00V mC2024 04 18.44005516 09 49.817+18 55 00.30         22.08GVEH045I52
     K24H00V mC2024 04 18.44051716 09 49.277+18 54 57.74         20.30GVEH045I52
     K24H00V KC2024 04 19.12014815 59 22.56 +17 40 33.6          20.5 GXEH045I93
     K24H00V KC2024 04 19.12953415 59 14.18 +17 39 34.8          20.4 GXEH045I93
     K24H00V KC2024 04 19.13875515 59 05.97 +17 38 37.2          20.7 GXEH045I93
     K24H00V KC2024 04 20.27551615 44 36.280+15 49 55.02         20.76GVEH045I52
     K24H00V KC2024 04 20.27686115 44 35.358+15 49 48.22         20.73GVEH045I52
     K24H00V KC2024 04 20.27955315 44 33.421+15 49 33.92         21.47GVEH045I52
Observer details:
G96 Mt. Lemmon Survey.  Observer J. B. Fazekas.  Measurers T. Beuden, V. F.
    Carvajal, D. Fay, J. B. Fazekas, D. C. Fuls, A. R. Gibbs, A. D. Grauer, H.
    Groeller, J. K. Hogan, R. A. Kowalski, S. M. Larson, G. J. Leonard, D.
    Rankin, R. L. Seaman, F. C. Shelly, K. W. Wierzchos.  1.5-m reflector +
    10K CCD.
H01 Magdalena Ridge Observatory, Socorro.  Observers W. H. Ryan, E. V. Ryan.
    Measurer W. H. Ryan.  2.4-m f/8.9 Ritchey-Chretien + CCD.
I52 Steward Observatory, Mt. Lemmon Station.  Observers J. K. Hogan, D. C.
    Fuls.  Measurers T. Beuden, V. F. Carvajal, D. Fay, J. B. Fazekas, D. C.
    Fuls, A. R. Gibbs, A. D. Grauer, H. Groeller, J. K. Hogan, R. A. Kowalski,
    S. M. Larson, G. J. Leonard, D. Rankin, R. L. Seaman, F. C. Shelly, K. W.
    Wierzchos.  1.0-m prime focus + CCD.
I93 St Pardon de Conques.  Observer F. Losse.  0.40-m f/3.7 reflector + CCD.
Orbital elements:
2024 HV                                                  Earth MOID = 0.0403 AU
Epoch 2024 Mar. 31.0 TT = JDT 2460400.5                 MPC                     
M  16.05418              (2000.0)            P               Q                  
n   0.44042820     Peri.  299.70658     -0.48048517     -0.87700136             
a   1.7108790      Node   179.00622     +0.83344079     -0.45719257             
e   0.6240740      Incl.    5.35642     +0.27296602     -0.14779570             
P   2.24           H   24.55          G   0.15           U   9                  
Residuals in seconds of arc
240418 G96  0.3+  0.6+    240418 H01  0.1+  0.2+    240419 I93  0.1+  0.2+
240418 G96  0.1-  0.2-    240418 H01  0.2-  0.1+    240419 I93  0.1-  0.2+
240418 G96  0.3+  0.3-    240418 I52  0.1+  0.0     240419 I93  0.2-  0.3+
240418 G96  0.8-  0.1-    240418 I52  0.1-  0.1+    240420 I52  0.5-  0.1-
240418 H01  0.1-  0.0     240418 I52  0.7+  0.7-    240420 I52  0.1+  0.1+
240418 H01  0.1+  0.0     240418 I52  0.2-  0.0     240420 I52  0.0   0.1-
Ephemeris:
2024 HV                  a,e,i = 1.71, 0.62, 5                   q = 0.6432
Date    TT    R. A. (2000) Decl.     Delta      r    Elong.  Phase     V
2024 03 21    01 10 08.4 +06 09 36   0.2343  0.7767    18.0   156.6    30.8
...
2024 04 05    23 47 41.5 +17 57 08   0.08466 0.9217    20.6   157.5    29.2
...
2024 04 13    18 59 50.3 +30 56 12   0.05142 1.0048    90.9    86.2    21.1
...
2024 04 19    16 01 08.9 +17 54 00   0.08570 1.0678   136.2    40.6    21.0
2024 04 20    15 47 48.4 +16 15 21   0.09387 1.0783   140.1    36.7    21.1
2024 04 21    15 36 45.4 +14 49 33   0.1024  1.0888   143.4    33.4    21.2
...
2024 04 27    14 57 24.7 +09 12 36   0.1578  1.1514   155.0    21.7    21.9
...
2024 05 05    14 34 51.9 +05 22 30   0.2392  1.2337   158.1    17.7    22.8
...
2024 05 20    14 20 16.7 +01 19 20   0.4111  1.3827   149.8    21.6    24.4
A. U. Tomatic                (C) Copyright 2024 MPC           M.P.E.C. 2024-H45
    
    
More information about the Iaude
mailing list